timestamp,surface_pressure_avg,surface_temp_avg,battery_voltage,lat,long
2020-11-29 00:09:01+00:00,328.7396,6.43,12.49,47.84626,-54.09684
2020-11-29 00:19:01+00:00,330.3713,6.44,12.41,47.84626,-54.09684
2020-11-29 00:29:01+00:00,320.5164,6.46,12.41,47.84626,-54.09684
2020-11-29 00:39:01+00:00,308.7497,6.48,12.41,47.84626,-54.09684
2020-11-29 00:49:01+00:00,308.4062,6.46,12.41,47.84626,-54.09684
2020-11-29 00:59:01+00:00,310.858,6.46,12.41,47.84626,-54.09684
2020-11-29 01:09:01+00:00,299.7747,6.49,12.41,47.84626,-54.09684
2020-11-29 01:19:01+00:00,287.118,6.49,12.41,47.84626,-54.09684
2020-11-29 01:29:01+00:00,285.4297,6.5,12.41,47.84626,-54.09684
2020-11-29 01:39:01+00:00,285.053,6.5,12.41,47.84626,-54.09684
2020-11-29 01:49:01+00:00,277.2381,6.5,12.41,47.84626,-54.09684
2020-11-29 01:59:01+00:00,268.4231,6.5,12.41,47.84626,-54.09684
2020-11-29 02:09:01+00:00,259.5197,6.5,12.41,47.84626,-54.09684
2020-11-29 02:19:01+00:00,253.6714,6.5,12.41,47.84626,-54.09684
2020-11-29 02:29:01+00:00,244.4481,6.5,12.41,47.84626,-54.09684
2020-11-29 02:39:01+00:00,238.2347,6.5,12.41,47.84626,-54.09684
2020-11-29 02:49:01+00:00,234.8281,6.5,12.41,47.84626,-54.09684
2020-11-29 02:59:01+00:00,233.2464,6.5,12.41,47.84626,-54.09684
2020-11-29 03:09:01+00:00,229.1764,6.5,12.41,47.84626,-54.09684
2020-11-29 03:19:01+00:00,225.6981,6.5,12.41,47.84626,-54.09684
2020-11-29 03:29:01+00:00,224.3148,6.5,12.41,47.84626,-54.09684
2020-11-29 03:39:01+00:00,222.5814,6.5,12.41,47.84626,-54.09684
2020-11-29 03:49:01+00:00,217.6831,6.5,12.41,47.84626,-54.09684
2020-11-29 03:59:01+00:00,213.4431,6.5,12.41,47.84626,-54.09684
2020-11-29 04:09:01+00:00,209.3614,6.5,12.41,47.84626,-54.09684
2020-11-29 04:19:01+00:00,208.9798,6.5,12.41,47.84626,-54.09684
2020-11-29 04:29:01+00:00,210.1381,6.5,12.41,47.84626,-54.09684
2020-11-29 04:39:01+00:00,210.5898,6.5,12.41,47.84626,-54.09684
2020-11-29 04:49:01+00:00,211.9264,6.5,12.41,47.84626,-54.09684
2020-11-29 04:59:01+00:00,211.6515,6.5,12.41,47.84626,-54.09684
2020-11-29 05:09:01+00:00,213.6514,6.5,12.41,47.84626,-54.09684
2020-11-29 05:19:01+00:00,217.8081,6.5,12.41,47.84626,-54.09684
2020-11-29 05:29:01+00:00,218.5531,6.5,12.41,47.84626,-54.09684
2020-11-29 05:39:01+00:00,220.1881,6.5,12.41,47.84626,-54.09684
2020-11-29 05:49:01+00:00,225.7464,6.5,12.41,47.84626,-54.09684
2020-11-29 05:59:01+00:00,231.7115,6.5,12.41,47.84626,-54.09684
2020-11-29 06:09:01+00:00,233.4815,6.5,12.41,47.84626,-54.09684
2020-11-29 06:19:01+00:00,236.3314,6.5,12.41,47.84626,-54.09684
2020-11-29 06:29:01+00:00,245.1031,6.5,12.41,47.84626,-54.09684
2020-11-29 06:39:01+00:00,254.5081,6.48,12.41,47.84626,-54.09684
2020-11-29 06:49:01+00:00,258.4581,6.48,12.41,47.84626,-54.09684
2020-11-29 06:59:01+00:00,262.9481,6.46,12.41,47.84626,-54.09684
2020-11-29 07:09:01+00:00,267.5064,6.48,12.41,47.84626,-54.09684
2020-11-29 07:19:01+00:00,270.8631,6.47,12.41,47.84626,-54.09684
2020-11-29 07:29:01+00:00,270.9431,6.48,12.41,47.84626,-54.09684
2020-11-29 07:39:01+00:00,276.5397,6.48,12.41,47.84626,-54.09684
2020-11-29 07:49:01+00:00,285.2364,6.48,12.41,47.84626,-54.09684
2020-11-29 07:59:01+00:00,295.283,6.48,12.41,47.84626,-54.09684
2020-11-29 08:09:01+00:00,300.4597,6.48,12.41,47.84626,-54.09684
2020-11-29 08:19:01+00:00,303.3763,6.48,12.41,47.84626,-54.09684
2020-11-29 08:29:01+00:00,308.9097,6.48,12.41,47.84626,-54.09684
2020-11-29 08:39:01+00:00,315.1147,6.48,12.41,47.84626,-54.09684
2020-11-29 08:49:01+00:00,319.3463,6.48,12.41,47.84626,-54.09684
2020-11-29 08:59:01+00:00,323.2247,6.49,12.41,47.84626,-54.09684
2020-11-29 09:09:01+00:00,333.0747,6.5,12.41,47.84626,-54.09684
2020-11-29 09:19:01+00:00,341.0247,6.5,12.41,47.84626,-54.09684
2020-11-29 09:29:01+00:00,346.8229,6.49,12.41,47.84626,-54.09684
2020-11-29 09:39:01+00:00,356.11800000000005,6.5,12.41,47.84626,-54.09684
2020-11-29 09:49:01+00:00,360.7362,6.49,12.41,47.84626,-54.09684
2020-11-29 09:59:01+00:00,359.6412,6.49,12.41,47.84626,-54.09684
2020-11-29 10:09:01+00:00,365.5363,6.48,12.41,47.84626,-54.09684
2020-11-29 10:19:01+00:00,368.3179,6.5,12.41,47.84626,-54.09684
2020-11-29 10:29:01+00:00,371.3695,6.5,12.41,47.84626,-54.09684
2020-11-29 10:39:01+00:00,371.68300000000005,6.5,12.41,47.84626,-54.09684
2020-11-29 10:49:01+00:00,371.3863,6.5,12.41,47.84626,-54.09684
2020-11-29 10:59:01+00:00,371.0213,6.5,12.41,47.84626,-54.09684
2020-11-29 11:09:01+00:00,370.6996,6.5,12.41,47.84626,-54.09684
2020-11-29 11:19:01+00:00,374.6479,6.48,12.41,47.84626,-54.09684
2020-11-29 11:29:01+00:00,376.9913,6.47,12.41,47.84626,-54.09684
2020-11-29 11:39:01+00:00,372.6563,6.48,12.41,47.84626,-54.09684
2020-11-29 11:49:01+00:00,368.0379,6.48,12.41,47.84626,-54.09684
2020-11-29 11:59:01+00:00,366.7062,6.48,12.41,47.84626,-54.09684
2020-11-29 12:09:01+00:00,363.4547,6.49,12.41,47.84626,-54.09684
2020-11-29 12:19:01+00:00,361.6512,6.49,12.41,47.84626,-54.09684
2020-11-29 12:29:01+00:00,358.7513,6.5,12.41,47.84626,-54.09684
2020-11-29 12:39:01+00:00,354.1313,6.5,12.41,47.84626,-54.09684
2020-11-29 12:49:01+00:00,353.5096,6.51,12.41,47.84626,-54.09684
2020-11-29 12:59:01+00:00,349.8879,6.59,12.41,47.84626,-54.09684
2020-11-29 13:09:01+00:00,340.0197,6.6,12.41,47.84626,-54.09684
2020-11-29 13:19:01+00:00,336.3063,6.59,12.49,47.84626,-54.09684
2020-11-29 13:29:01+00:00,330.5646,6.59,12.49,47.84626,-54.09684
2020-11-29 13:39:01+00:00,326.7496,6.59,12.49,47.84626,-54.09684
2020-11-29 13:49:01+00:00,315.053,6.58,12.49,47.84626,-54.09684
2020-11-29 13:59:01+00:00,309.418,6.56,12.49,47.84626,-54.09684
2020-11-29 14:09:01+00:00,301.9097,6.5,12.49,47.84626,-54.09684
2020-11-29 14:19:01+00:00,292.0598,6.5,12.49,47.84626,-54.09684
2020-11-29 14:29:01+00:00,280.8963,6.5,12.49,47.84626,-54.09684
2020-11-29 14:39:01+00:00,273.0981,6.49,12.49,47.84626,-54.09684
2020-11-29 14:49:01+00:00,270.6431,6.49,12.49,47.84626,-54.09684
2020-11-29 14:59:01+00:00,264.2948,6.46,12.49,47.84626,-54.09684
2020-11-29 15:09:01+00:00,253.7664,6.47,12.49,47.84626,-54.09684
2020-11-29 15:19:01+00:00,249.2798,6.47,12.57,47.84626,-54.09684
2020-11-29 15:29:01+00:00,242.9247,6.48,12.57,47.84626,-54.09684
2020-11-29 15:39:01+00:00,229.9598,6.48,12.57,47.84626,-54.09684
2020-11-29 15:49:01+00:00,223.6781,6.49,12.57,47.84626,-54.09684
2020-11-29 15:59:01+00:00,221.6081,6.49,12.57,47.84626,-54.09684
2020-11-29 16:09:01+00:00,219.0664,6.49,12.57,47.84626,-54.09684
2020-11-29 16:19:01+00:00,214.6431,6.5,13.05,47.84626,-54.09684
2020-11-29 16:29:01+00:00,207.1581,6.5,13.05,47.84626,-54.09684
2020-11-29 16:39:01+00:00,201.8548,6.5,13.05,47.84626,-54.09684
2020-11-29 16:49:01+00:00,197.1664,6.5,13.05,47.84626,-54.09684
2020-11-29 16:59:01+00:00,190.1481,6.5,13.05,47.84626,-54.09684
2020-11-29 17:09:01+00:00,186.0365,6.5,13.05,47.84626,-54.09684
2020-11-29 17:19:01+00:00,186.1565,6.5,12.89,47.84626,-54.09684
2020-11-29 17:29:01+00:00,188.1465,6.57,12.89,47.84626,-54.09684
2020-11-29 17:39:01+00:00,185.9381,6.6,12.89,47.84626,-54.09684
2020-11-29 17:49:01+00:00,189.4348,6.59,12.89,47.84626,-54.09684
2020-11-29 17:59:01+00:00,189.2648,6.6,12.89,47.84626,-54.09684
2020-11-29 18:09:01+00:00,190.4681,6.6,12.89,47.84626,-54.09684
2020-11-29 18:19:01+00:00,201.0147,6.65,12.89,47.84626,-54.09684
2020-11-29 18:29:01+00:00,201.6731,6.7,12.89,47.84626,-54.09684
2020-11-29 18:39:01+00:00,198.5464,6.7,12.89,47.84626,-54.09684
2020-11-29 18:49:01+00:00,204.7065,6.7,12.89,47.84626,-54.09684
2020-11-29 18:59:01+00:00,212.8965,6.7,12.89,47.84626,-54.09684
2020-11-29 19:09:01+00:00,214.7364,6.7,12.89,47.84626,-54.09684
2020-11-29 19:19:01+00:00,219.6798,6.7,12.65,47.84626,-54.09684
2020-11-29 19:29:01+00:00,228.4615,6.7,12.65,47.84626,-54.09684
2020-11-29 19:39:01+00:00,228.9781,6.68,12.65,47.84626,-54.09684
2020-11-29 19:49:01+00:00,231.4898,6.64,12.65,47.84626,-54.09684
2020-11-29 19:59:01+00:00,239.2464,6.6,12.65,47.84626,-54.09684
2020-11-29 20:09:01+00:00,245.3847,6.6,12.65,47.84626,-54.09684
2020-11-29 20:19:01+00:00,246.3881,6.6,12.57,47.84626,-54.09684
2020-11-29 20:29:01+00:00,254.5497,6.6,12.57,47.84626,-54.09684
2020-11-29 20:39:01+00:00,265.8463,6.66,12.57,47.84626,-54.09684
2020-11-29 20:49:01+00:00,273.0814,6.7,12.57,47.84626,-54.09684
2020-11-29 20:59:01+00:00,275.0231,6.6,12.57,47.84626,-54.09684
2020-11-29 21:09:01+00:00,280.5297,6.6,12.57,47.84626,-54.09684
2020-11-29 21:19:01+00:00,285.7648,6.61,12.49,47.84626,-54.09684
2020-11-29 21:29:01+00:00,291.4731,6.72,12.49,47.84626,-54.09684
2020-11-29 21:39:01+00:00,299.3163,6.77,12.49,47.84626,-54.09684
2020-11-29 21:49:01+00:00,306.0046,6.76,12.49,47.84626,-54.09684
2020-11-29 21:59:01+00:00,309.2163,6.76,12.49,47.84626,-54.09684
2020-11-29 22:09:01+00:00,314.5264,6.76,12.49,47.84626,-54.09684
2020-11-29 22:19:01+00:00,318.5164,6.79,12.41,47.84626,-54.09684
2020-11-29 22:29:01+00:00,327.5496,6.8,12.41,47.84626,-54.09684
2020-11-29 22:39:01+00:00,335.8713,6.8,12.41,47.84626,-54.09684
2020-11-29 22:49:01+00:00,335.8612,6.79,12.41,47.84626,-54.09684
2020-11-29 22:59:01+00:00,334.0597,6.77,12.41,47.84626,-54.09684
2020-11-29 23:09:01+00:00,338.8363,6.79,12.41,47.84626,-54.09684
2020-11-29 23:19:01+00:00,343.5963,6.79,12.41,47.84626,-54.09684
2020-11-29 23:29:01+00:00,338.3964,6.79,12.41,47.84626,-54.09684
2020-11-29 23:39:01+00:00,334.0780000000001,6.79,12.41,47.84626,-54.09684
2020-11-29 23:49:01+00:00,336.7697,6.79,12.41,47.84626,-54.09684
2020-11-29 23:59:01+00:00,334.5897,6.77,12.41,47.84626,-54.09684
